[[{"header":{"parameterUnit":"m.s-1","parameterCategory":1,"la1":30.2991,"la2":30.254,"lo1":-89.0895,"lo2":-89.0444,"dy":0.0017,"dx":0.0017,"nx":28,"ny":28,"refTime":"2025-09-11T21:00:00:Z","depth":0,"parameterNumber":2,"parameterNumberName":"U-component_of_WINDS"},"data":[0,0,0,0,0,0,0,0,0,0,0,0,0,0,0,0,0,0,0,0,0,0,0,0,0,0,0,0,0,0,0,0,0,0,0,0,0,0,0,0,0,0,0,0,0,0,0,0,0,0,0,0,0,0,0,0,0,0,-1.3288,-1.329,0,-1.3452,-1.3454,-1.3456,-1.346,-1.3458,-1.3456,-1.3454,-1.3624,-1.363,-1.3637,0,0,0,0,0,0,0,0,0,0,0,0,0,-1.2981,-1.2986,-1.3288,-1.329,-1.3292,-1.3452,-1.3454,-1.3456,-1.346,-1.3458,-1.3455,-1.3453,-1.3622,-1.363,-1.3637,0,0,0,0,0,0,0,0,0,0,0,0,0,-1.3126,-1.2988,-1.3287,-1.3313,-1.3317,-1.3451,-1.3454,-1.3457,-1.3461,-1.3458,-1.3455,-1.3452,-1.362,-1.3629,-1.3638,-1.3759,0,0,-1.3668,-1.3672,0,0,0,0,0,0,0,0,-1.3118,-1.3138,-1.3307,-1.3312,-1.3316,-1.3432,-1.3408,-1.3558,-1.3462,-1.3406,-1.3454,-1.345,-1.3563,-1.3577,-1.3615,-1.3767,-1.3774,-1.3669,-1.3675,-1.3679,-1.3681,0,0,0,0,0,0,0,-1.3108,-1.3131,-1.3353,-1.331,-1.3315,-1.3318,-1.3335,-1.3437,-1.35,-1.3411,-1.3412,-1.3431,-1.3565,-1.3605,-1.3619,-1.3777,-1.3668,-1.3677,-1.3683,-1.3687,-1.4038,-1.4041,0,0,0,0,0,0,-1.3092,-1.3122,-1.3348,-1.3358,-1.3208,-1.3325,-1.3345,-1.3398,-1.3499,-1.3511,-1.3433,-1.343,-1.359,-1.3607,-1.3625,-1.3773,-1.3679,-1.3688,-1.3693,-1.4034,-1.4039,-1.4043,0,0,0,0,0,0,-1.3086,-1.3112,-1.3341,-1.324,-1.327,-1.3334,-1.3394,-1.3403,-1.3444,-1.3516,-1.3527,-1.3463,-1.3589,-1.3611,-1.3726,-1.3779,-1.3692,-1.3701,-1.403,-1.4036,-1.4041,-1.4071,0,0,0,0,0,0,-1.3077,-1.311,-1.3156,-1.3241,-1.3275,-1.3438,-1.3397,-1.3409,-1.346,-1.3458,-1.3546,-1.3558,-1.3588,-1.3711,-1.3735,-1.3791,-1.3708,-1.4026,-1.4033,-1.4039,-1.4065,-1.4076,-1.4086,0,0,0,0,0,-1.3066,-1.3157,-1.3158,-1.3185,-1.3333,-1.3441,-1.3461,-1.3493,-1.3464,-1.3511,-1.3558,-1.3555,-1.377,-1.3723,-1.375,-1.3809,-1.4023,-1.4031,-1.4038,-1.4061,-1.4074,-1.4086,0,0,0,0,0,0,-1.3076,-1.3169,-1.317,-1.3292,-1.3359,-1.3442,-1.3502,-1.3506,-1.3582,-1.3577,-1.3614,-1.3634,-1.3749,-1.3791,-1.3737,-1.3932,-1.3893,-1.3907,-1.39,-1.3914,-1.3924,-1.3912,-1.3716,0,0,0,0,0,-1.3093,-1.3172,-1.3249,-1.335,-1.3383,-1.3437,-1.3485,-1.3504,-1.3575,-1.3603,-1.3658,-1.3728,-1.3811,-1.3865,-1.3945,-1.4072,-1.4092,-1.4126,-1.4136,-1.4144,-1.4156,-1.4227,-1.4244,-1.4069,-1.4069,-1.4069,0,0,-1.3128,-1.3188,-1.3236,-1.3353,-1.3407,-1.349,-1.346,-1.3549,-1.3611,-1.3617,-1.3729,-1.3772,-1.3852,-1.3973,-1.4029,-1.4012,-1.4209,-1.4155,-1.4161,-1.4168,-1.4237,-1.4254,-1.4269,-1.4074,-1.4073,-1.4072,0,0,-1.3233,-1.3287,-1.3376,-1.3431,-1.3514,-1.3549,-1.3571,-1.3654,-1.3683,-1.3795,-1.3802,-1.3877,-1.4019,-1.4076,-1.4124,-1.4254,-1.4255,-1.4279,-1.4333,-1.4403,-1.4416,-1.4429,-1.4476,-1.4492,-1.429,-1.4291,-1.4291,0,-1.3266,-1.339,-1.3422,-1.3511,-1.3563,-1.3573,-1.3665,-1.3717,-1.3821,-1.3858,-1.3836,-1.4016,-1.407,-1.4206,-1.4238,-1.4276,-1.4303,-1.4269,-1.4412,-1.4424,-1.4437,-1.4482,-1.4499,-1.4293,-1.4293,-1.4292,-1.4292,0,-1.3427,-1.3513,-1.3576,-1.3677,-1.3736,-1.3826,-1.3873,-1.393,-1.3944,-1.3982,-1.4098,-1.4164,-1.4259,-1.4292,-1.4307,-1.4431,-1.4418,-1.4404,-1.4365,-1.4455,-1.4498,-1.4516,-1.4296,-1.4296,-1.4295,-1.4294,0,0,-1.3542,-1.3661,-1.3683,-1.373,-1.3822,-1.389,-1.3982,-1.4074,-1.4122,-1.4194,-1.4273,-1.4394,-1.4382,-1.4436,-1.4458,-1.4519,-1.4619,-1.4498,-1.45,-1.4518,-1.4761,-1.477,-1.479,-1.462,-1.4624,-1.4626,-1.4754,0,-1.3658,-1.382,-1.3853,-1.3993,-1.4074,-1.4086,-1.4166,-1.4232,-1.4271,-1.4346,-1.4389,-1.4474,-1.4452,-1.4485,-1.4546,-1.4594,-1.4668,-1.4585,-1.4694,-1.4698,-1.4674,-1.4812,-1.4823,-1.494,-1.4771,-1.4774,-1.4776,0,-1.3814,-1.389,-1.4039,-1.4123,-1.4158,-1.4229,-1.4317,-1.4389,-1.4464,-1.4489,-1.455,-1.4566,-1.4663,-1.462,-1.4755,-1.4697,-1.4744,-1.4775,-1.4781,-1.4792,-1.4742,-1.4828,-1.4978,-1.4995,-1.4803,-1.4801,-1.4799,0,-1.3884,-1.4024,-1.4131,-1.4171,-1.4271,-1.4321,-1.4365,-1.4438,-1.4492,-1.4569,-1.4605,-1.4693,-1.4741,-1.481,-1.4849,-1.4814,-1.4982,-1.4942,-1.5005,-1.5004,-1.5039,-1.5037,-1.5199,-1.507,-1.507,-1.5069,-1.5069,0,-1.4009,-1.41,-1.4164,-1.423,-1.4333,-1.4371,-1.4472,-1.4515,-1.4581,-1.4656,-1.4672,-1.4743,-1.4791,-1.4869,-1.4901,-1.5009,-1.503,-1.5053,-1.5061,-1.5052,-1.5049,-1.5083,-1.5076,-1.5074,-1.5073,-1.5072,-1.5071,0,-1.4104,-1.415,-1.4268,-1.4354,-1.4378,-1.4449,-1.4523,-1.4589,-1.4628,-1.4724,-1.4749,-1.4811,-1.4904,-1.4951,-1.5067,-1.5088,-1.521,-1.5212,-1.5184,-1.5187,-1.5248,-1.5241,-1.5438,-1.5466,-1.5318,-1.5319,-1.532,0,-1.418,-1.4251,-1.4344,-1.4396,-1.4441,-1.4524,-1.458,-1.4621,-1.4678,-1.4771,-1.4826,-1.492,-1.4997,-1.5145,-1.5202,-1.5291,-1.5295,-1.5358,-1.5309,-1.5298,-1.5297,-1.5292,-1.53,-1.5367,-1.5368,-1.5369,-1.537,0,-1.4312,-1.4332,-1.4411,-1.45,-1.4566,-1.4637,-1.4707,-1.4749,-1.4802,-1.4866,-1.4961,-1.5021,-1.514,-1.5233,-1.5327,-1.5373,-1.5381,-1.5385,-1.5405,-1.5396,-1.5377,-1.5389,-1.5208,-1.538,-1.5379,-1.5379,-1.5378,-1.5378,-1.44,-1.4464,-1.454,-1.4628,-1.4686,-1.4752,-1.4818,-1.4866,-1.4946,-1.5046,-1.5066,-1.5167,-1.5244,-1.537,-1.542,-1.5501,-1.5487,-1.5515,-1.5522,-1.5528,-1.5532,-1.5365,-1.5518,-1.5518,-1.5517,-1.5517,-1.5517,0,-1.4533,-1.4583,-1.4664,-1.4762,-1.4832,-1.4834,-1.4913,-1.4971,-1.506,-1.5131,-1.5207,-1.5317,-1.5409,-1.5473,-1.5566,-1.5618,-1.5624,-1.5641,-1.5638,-1.5649,-1.5538,-1.5512,-1.5635,-1.5635,-1.5635,-1.5635,-1.5635,-1.5635,-1.461,-1.4718,-1.4747,-1.4885,-1.4935,-1.5034,-1.5079,-1.514,-1.5197,-1.532,-1.5396,-1.5437,-1.5506,-1.5604,-1.5689,-1.5705,-1.5739,-1.5756,-1.5773,-1.5669,-1.5656,-1.5644,-1.562,-1.5763,-1.5763,-1.5876,-1.5877,-1.5878]},{"header":{"parameterUnit":"m.s-1","parameterCategory":1,"la1":30.2991,"la2":30.254,"lo1":-89.0895,"lo2":-89.0444,"dy":0.0017,"dx":0.0017,"nx":28,"ny":28,"refTime":"2025-09-11T21:00:00:Z","depth":0,"parameterNumber":3,"parameterNumberName":"V-component_of_WINDS"},"data":[0,0,0,0,0,0,0,0,0,0,0,0,0,0,0,0,0,0,0,0,0,0,0,0,0,0,0,0,0,0,0,0,0,0,0,0,0,0,0,0,0,0,0,0,0,0,0,0,0,0,0,0,0,0,0,0,0,0,-2.3668,-2.3668,0,-2.3698,-2.3698,-2.3699,-2.3662,-2.366,-2.3659,-2.3658,-2.3685,-2.3687,-2.3689,0,0,0,0,0,0,0,0,0,0,0,0,0,-2.3574,-2.3576,-2.3668,-2.3668,-2.3669,-2.3698,-2.3698,-2.3699,-2.3662,-2.366,-2.3659,-2.3657,-2.3684,-2.3687,-2.3689,0,0,0,0,0,0,0,0,0,0,0,0,0,-2.3611,-2.3577,-2.3668,-2.3654,-2.3653,-2.3698,-2.3698,-2.3699,-2.3662,-2.366,-2.3658,-2.3656,-2.3684,-2.3687,-2.3689,-2.3749,0,0,-2.3699,-2.37,0,0,0,0,0,0,0,0,-2.3609,-2.3614,-2.3655,-2.3655,-2.3654,-2.3674,-2.3675,-2.3715,-2.3663,-2.3659,-2.3658,-2.3655,-2.3683,-2.3686,-2.3696,-2.375,-2.3751,-2.3699,-2.3701,-2.3702,-2.3703,0,0,0,0,0,0,0,-2.3606,-2.3613,-2.368,-2.3656,-2.3655,-2.3645,-2.3648,-2.3683,-2.3682,-2.3659,-2.3656,-2.366,-2.3682,-2.3693,-2.3696,-2.3751,-2.3699,-2.3701,-2.3703,-2.3704,-2.3855,-2.3857,0,0,0,0,0,0,-2.3606,-2.3611,-2.3679,-2.368,-2.3626,-2.3648,-2.3651,-2.367,-2.3681,-2.3681,-2.3662,-2.3659,-2.3689,-2.3693,-2.3697,-2.3767,-2.3702,-2.3705,-2.3706,-2.3853,-2.3855,-2.3858,0,0,0,0,0,0,-2.3604,-2.3612,-2.3677,-2.3645,-2.3652,-2.3652,-2.3673,-2.3671,-2.3682,-2.3684,-2.3683,-2.3674,-2.3687,-2.3693,-2.3736,-2.3767,-2.3706,-2.3709,-2.385,-2.3854,-2.3857,-2.3907,0,0,0,0,0,0,-2.3601,-2.3612,-2.3635,-2.3646,-2.3654,-2.3717,-2.3674,-2.3673,-2.3688,-2.3684,-2.3695,-2.3694,-2.3686,-2.3732,-2.3739,-2.377,-2.3711,-2.3847,-2.3852,-2.3856,-2.3902,-2.3911,-2.3919,0,0,0,0,0,-2.3598,-2.3647,-2.3637,-2.3645,-2.3684,-2.3719,-2.3724,-2.3715,-2.3691,-2.3713,-2.3714,-2.3694,-2.3763,-2.3737,-2.3744,-2.3777,-2.3845,-2.385,-2.3855,-2.3899,-2.391,-2.3919,0,0,0,0,0,0,-2.3639,-2.3648,-2.3637,-2.3691,-2.3705,-2.3713,-2.3742,-2.3727,-2.3747,-2.3742,-2.3728,-2.3731,-2.3777,-2.3781,-2.3752,-2.3834,-2.38,-2.3807,-2.383,-2.3841,-2.3849,-2.3847,-2.3714,0,0,0,0,0,-2.3655,-2.3684,-2.369,-2.3737,-2.3745,-2.3742,-2.3757,-2.3749,-2.3762,-2.3767,-2.3771,-2.3784,-2.3808,-2.3825,-2.3847,-2.3903,-2.3904,-2.3929,-2.3937,-2.3944,-2.395,-2.3979,-2.399,-2.3874,-2.3874,-2.3874,0,0,-2.3686,-2.3695,-2.3714,-2.3746,-2.3755,-2.3785,-2.3747,-2.378,-2.3801,-2.3772,-2.3814,-2.3817,-2.383,-2.388,-2.3902,-2.3885,-2.3982,-2.395,-2.3956,-2.3958,-2.3985,-2.3996,-2.4006,-2.3877,-2.3877,-2.3876,0,0,-2.376,-2.377,-2.381,-2.3821,-2.3837,-2.3835,-2.3844,-2.3855,-2.3856,-2.3898,-2.3877,-2.3901,-2.3944,-2.3954,-2.3964,-2.4042,-2.4024,-2.4049,-2.4093,-2.4122,-2.4131,-2.4139,-2.4166,-2.4176,-2.4055,-2.4055,-2.4055,0,-2.3797,-2.3842,-2.3833,-2.3867,-2.3881,-2.3857,-2.3897,-2.3908,-2.3929,-2.3939,-2.392,-2.3972,-2.3979,-2.4031,-2.405,-2.406,-2.4069,-2.4048,-2.413,-2.4138,-2.4146,-2.4171,-2.4182,-2.4058,-2.4058,-2.4058,-2.4057,0,-2.3887,-2.3919,-2.3949,-2.3972,-2.3989,-2.4027,-2.4021,-2.404,-2.403,-2.403,-2.4072,-2.408,-2.4103,-2.4115,-2.4105,-2.4165,-2.4154,-2.4133,-2.4098,-2.416,-2.4184,-2.4194,-2.4063,-2.4062,-2.4061,-2.406,0,0,-2.3987,-2.4005,-2.4016,-2.4026,-2.4041,-2.4065,-2.41,-2.4125,-2.414,-2.4156,-2.4185,-2.4221,-2.4202,-2.4214,-2.4205,-2.423,-2.4291,-2.4206,-2.4206,-2.4221,-2.4357,-2.4372,-2.4384,-2.4279,-2.4281,-2.4282,-2.4355,0,-2.406,-2.4124,-2.4116,-2.4176,-2.4204,-2.4182,-2.4212,-2.4225,-2.4225,-2.4248,-2.4248,-2.4274,-2.4247,-2.4254,-2.4278,-2.4278,-2.4318,-2.4273,-2.4305,-2.4306,-2.4302,-2.4397,-2.4413,-2.4482,-2.4365,-2.4366,-2.4368,0,-2.4155,-2.4175,-2.4238,-2.4249,-2.4261,-2.4289,-2.431,-2.4333,-2.4346,-2.4344,-2.4358,-2.4345,-2.4379,-2.4344,-2.4391,-2.436,-2.4373,-2.4375,-2.4377,-2.438,-2.434,-2.4401,-2.4504,-2.4514,-2.4382,-2.4381,-2.438,0,-2.4221,-2.4264,-2.4307,-2.4316,-2.433,-2.4351,-2.4357,-2.4368,-2.4383,-2.4401,-2.4411,-2.4432,-2.4444,-2.4461,-2.4453,-2.4428,-2.4501,-2.4465,-2.45,-2.45,-2.4516,-2.4515,-2.4622,-2.4525,-2.4524,-2.4524,-2.4524,0,-2.4303,-2.4343,-2.4337,-2.4364,-2.4407,-2.4397,-2.444,-2.4443,-2.4453,-2.4479,-2.446,-2.4485,-2.4473,-2.4497,-2.4491,-2.453,-2.4536,-2.4535,-2.4533,-2.4536,-2.4536,-2.4544,-2.4539,-2.4527,-2.4526,-2.4526,-2.4525,0,-2.4385,-2.4383,-2.4428,-2.4438,-2.4441,-2.4473,-2.448,-2.4505,-2.4504,-2.4537,-2.4544,-2.4542,-2.4569,-2.4563,-2.4592,-2.4588,-2.4637,-2.4629,-2.4633,-2.4631,-2.4666,-2.4663,-2.4781,-2.4796,-2.469,-2.4691,-2.4692,0,-2.4438,-2.4468,-2.4481,-2.4498,-2.4506,-2.4533,-2.4549,-2.454,-2.4556,-2.4573,-2.4595,-2.4621,-2.464,-2.4683,-2.4684,-2.4706,-2.4698,-2.4738,-2.4701,-2.4704,-2.4698,-2.4696,-2.4699,-2.4745,-2.4746,-2.4747,-2.4748,0,-2.4531,-2.4529,-2.4553,-2.4576,-2.4596,-2.4613,-2.4629,-2.4643,-2.4636,-2.4655,-2.4683,-2.4698,-2.4728,-2.4753,-2.4773,-2.4778,-2.4762,-2.476,-2.4769,-2.4773,-2.4774,-2.4774,-2.4653,-2.4757,-2.4756,-2.4756,-2.4755,-2.4755,-2.46,-2.4625,-2.4639,-2.4666,-2.4677,-2.4692,-2.4716,-2.4718,-2.4741,-2.4766,-2.4759,-2.479,-2.4801,-2.4827,-2.4835,-2.4858,-2.4843,-2.4856,-2.486,-2.4863,-2.4867,-2.4771,-2.4862,-2.4861,-2.4861,-2.4861,-2.4861,0,-2.4693,-2.47,-2.4725,-2.4749,-2.477,-2.4754,-2.477,-2.4788,-2.4816,-2.4829,-2.4849,-2.488,-2.4904,-2.4907,-2.4929,-2.4948,-2.4941,-2.4954,-2.4952,-2.4954,-2.488,-2.4869,-2.4959,-2.4959,-2.4959,-2.4959,-2.4959,-2.4959,-2.4743,-2.4786,-2.4785,-2.4832,-2.4839,-2.4871,-2.4881,-2.4895,-2.4905,-2.4941,-2.4962,-2.4964,-2.4972,-2.4995,-2.5016,-2.5016,-2.5025,-2.5041,-2.5038,-2.4969,-2.4959,-2.495,-2.494,-2.5043,-2.5043,-2.511,-2.511,-2.5111]}]]